Atlanta, GA

11:04 AM EST on December 06, 2019 (GMT -0500)
The Hartsfield Atlanta International

Weather History for KATL - October, 2019

Change the Weather History Date:

Monday, October 7, 2019

  Actual Average Record
Temperature  
Mean Temperature 74 °F 66 °F  
Max Temperature 81 °F 75 °F 90 °F (1884)
Min Temperature 66 °F 57 °F 37 °F (1889)
Degree Days  
Heating Degree Days 0 2  
Month to date heating degree days 0 11  
Since 1 July heating degree days 0 22  
Cooling Degree Days 8 3  
Month to date cooling degree days 108 26  
Year to date cooling degree days 2585 1831  
Growing Degree Days 24 (Base 50)    
Moisture  
Dew Point 62 °F    
Average Humidity 68    
Maximum Humidity 87    
Minimum Humidity 52    
Precipitation  
Precipitation 0.00 in 0.12 in 1.72 in (1910)
Month to date precipitation 0.00 0.93  
Year to date precipitation 32.33 39.23  
Sea Level Pressure  
Sea Level Pressure 30.07 in    
Wind  
Wind Speed 6 mph ()    
Max Wind Speed 12 mph    
Max Gust Speed 15 mph    
Visibility 10.0 miles    
Events      
T = Trace of Precipitation, MM = Missing Value Source: Averaged Metar Reports

Daily Weather History Graph

Daily Weather History Graph

Search for Another Location

Airport or City:

Astronomy

Oct. 07, 2019 Rise Set
Actual Time 7:36 AM EDT 7:14 PM EDT
Civil Twilight 7:11 AM EDT 7:39 PM EDT
Nautical Twilight 6:42 AM EDT 8:08 PM EDT
Astronomical Twilight 6:13 AM EDT 8:36 PM EDT
Moon 4:15 PM EDT (10/7) 1:49 AM EDT (10/7)
Length of Visible Light 12h 27m
Length of Day
11h 38m
Waxing Gibbous, 69% of the Moon is Illuminated
Oct 7
Waxing Gibbous
Oct 13
Full
Oct 21
Last Quarter
Oct 27
New
Nov 4
First Quarter

Hourly Weather History & Observations

Time (EDT) Temp. Heat Index Dew Point Humidity Pressure Visibility Wind Dir Wind Speed Gust Speed Precip Events Conditions
12:52 AM 71.1 °F - 62.1 °F 73% 30.13 in 10.0 mi East 6.9 mph - N/A   Mostly Cloudy
1:52 AM 71.1 °F - 62.1 °F 73% 30.12 in 10.0 mi ENE 8.1 mph - N/A   Mostly Cloudy
2:52 AM 70.0 °F - 63.0 °F 78% 30.13 in 10.0 mi East 6.9 mph - N/A   Overcast
3:52 AM 70.0 °F - 63.0 °F 78% 30.12 in 10.0 mi East 5.8 mph - N/A   Overcast
4:52 AM 70.0 °F - 63.0 °F 78% 30.10 in 10.0 mi East 10.4 mph - N/A   Mostly Cloudy
5:52 AM 69.1 °F - 63.0 °F 81% 30.09 in 10.0 mi East 10.4 mph - N/A   Mostly Cloudy
6:52 AM 68.0 °F - 63.0 °F 84% 30.09 in 10.0 mi East 8.1 mph - N/A   Scattered Clouds
7:52 AM 66.9 °F - 62.1 °F 84% 30.09 in 10.0 mi East 9.2 mph - N/A   Scattered Clouds
8:52 AM 68.0 °F - 63.0 °F 84% 30.11 in 10.0 mi ENE 6.9 mph - N/A   Mostly Cloudy
9:52 AM 72.0 °F - 63.0 °F 73% 30.11 in 10.0 mi East 5.8 mph - N/A   Scattered Clouds
10:52 AM 75.0 °F - 63.0 °F 66% 30.10 in 10.0 mi ESE 9.2 mph - N/A   Mostly Cloudy
11:21 AM 75.9 °F - 64.0 °F 67% 30.13 in 10.0 mi East 4.6 mph - N/A   Mostly Cloudy
11:52 AM 75.9 °F - 64.0 °F 67% 30.11 in 10.0 mi Variable 4.6 mph - N/A   Mostly Cloudy
12:25 PM 75.9 °F - 63.0 °F 64% 30.12 in 10.0 mi North 3.5 mph - N/A   Mostly Cloudy
12:52 PM 77.0 °F - 63.0 °F 62% 30.09 in 10.0 mi Variable 4.6 mph - N/A   Mostly Cloudy
1:03 PM 75.9 °F - 63.0 °F 64% 30.11 in 10.0 mi NE 4.6 mph - N/A   Mostly Cloudy
1:52 PM 75.9 °F - 63.0 °F 64% 30.06 in 10.0 mi North 8.1 mph - N/A   Mostly Cloudy
2:52 PM 78.1 °F - 63.0 °F 60% 30.04 in 10.0 mi NNE 8.1 mph - N/A   Mostly Cloudy
3:52 PM 80.1 °F 81.5 °F 63.0 °F 56% 30.02 in 10.0 mi NNE 6.9 mph - N/A   Mostly Cloudy
4:52 PM 81.0 °F 81.9 °F 62.1 °F 52% 30.00 in 10.0 mi Calm Calm - N/A   Scattered Clouds
5:52 PM 79.0 °F - 61.0 °F 54% 30.00 in 10.0 mi North 4.6 mph - N/A   Mostly Cloudy
6:52 PM 78.1 °F - 61.0 °F 56% 29.99 in 10.0 mi NNW 6.9 mph - N/A   Mostly Cloudy
7:52 PM 75.9 °F - 62.1 °F 62% 30.00 in 10.0 mi NNW 8.1 mph - N/A   Mostly Cloudy
8:52 PM 75.0 °F - 60.1 °F 60% 30.01 in 10.0 mi North 9.2 mph - N/A   Mostly Cloudy
9:52 PM 73.0 °F - 59.0 °F 61% 30.03 in 10.0 mi NW 6.9 mph - N/A   Partly Cloudy
10:52 PM 72.0 °F - 60.1 °F 66% 30.03 in 10.0 mi NW 9.2 mph - N/A   Partly Cloudy
11:52 PM 71.1 °F - 60.1 °F 68% 30.02 in 10.0 mi NNW 4.6 mph - N/A   Scattered Clouds